Regional Weather Roundup
Issued by NWS

Home | Current Version | Previous Version | Graphics & Text | Print | Product List | Glossary On
Versions: 1 2 3 4 5 6 7 8 9 10 11 12 13 14 15 16 17 18 19 20 21 22 23 24 25 26 27 28 29 30 31 32 33 34 35 36 37 38 39 40 41 42 43 44 45 46 47 48 49 50
000
ASUS43 KDMX 220906
RWRIA

WEATHER ROUNDUP FOR IOWA
NATIONAL WEATHER SERVICE DES MOINES IA
300 AM CST WED FEB 22 2017

NOTE: "FAIR" INDICATES FEW OR NO CLOUDS BELOW 12,000 FEET WITH NO
SIGNIFICANT WEATHER AND/OR OBSTRUCTIONS TO VISIBILITY.

* - THESE STATIONS ARE NOT NWS STATIONS...THUS NOT UNDER NWS
QUALITY CONTROL.  THEY ALSO DO NOT REPORT WEATHER SUCH
AS PRECIPITATION OR FOG.

IAZ001>003-012>014-020>022-031>034-043>046-221000-
   NORTHWEST IOWA

CITY           SKY/WX    TMP DP  RH WIND       PRES   REMARKS
CARROLL *      CLEAR     50  37  62 SW22      29.68F
CHEROKEE *     CLEAR     46  35  64 S8        29.66S
DENISON *      CLEAR     46  36  66 S10       29.68F
LE MARS *      CLEAR     41  34  75 S7        29.66S
ORANGE CITY *  CLEAR     43  36  75 S5        29.64S
SHELDON *      CLOUDY    39  37  93 S9        29.63F WCI  33
SIOUX CITY     CLEAR     41  34  76 E7        29.67S
SPENCER        CLEAR     37  33  85 S7        29.64F WCI  32
STORM LAKE *   CLEAR     48  36  61 SW14      29.66F
$$

IAZ055>058-069>071-079>083-090>094-221000-
   SOUTHWEST IOWA

CITY           SKY/WX    TMP DP  RH WIND       PRES   REMARKS
ATLANTIC *     CLEAR     41  36  81 S3        29.75F
CLARINDA *     CLEAR     46  36  66 S8        29.78F
COUNCIL BLFS * CLEAR     52  36  54 S10G16    29.73F
CRESTON *      CLEAR     43  34  70 S12       29.77F
HARLAN  *      CLEAR     41  37  87 CALM      29.75F
LAMONI         CLEAR     46  35  65 S12       29.78F
RED OAK *      CLEAR     43  36  75 CALM      29.76F
SHENANDOAH *   CLEAR     46  36  66 SW6       29.76F
$$

IAZ047>049-059>061-072>074-084-221000-
   CENTRAL IOWA

CITY           SKY/WX    TMP DP  RH WIND       PRES   REMARKS
AMES           CLEAR     48  37  65 S8        29.72F
ANKENY *       CLEAR     52  32  46 S8        29.74F
BOONE *        CLEAR     50  36  57 SW12G18   29.71S
CHARITON *     CLEAR     46  36  66 S9        29.77F
DES MOINES     CLEAR     52  32  46 S10       29.74F
GRINNELL*      CLEAR     46  34  64 S10       29.77F
KNOXVILLE *    CLEAR     50  34  53 S9        29.75F
MARSHALLTOWN   CLEAR     48  35  60 S14       29.72F
NEWTON *       CLEAR     43  34  70 S8        29.75F
PELLA *        CLEAR     49  35  59 SW8       29.77F
PERRY *          N/A     47  37  68 SW12      29.72F
$$

IAZ004>006-015-016-023>025-035-036-221000-
   NORTH CENTRAL IOWA

CITY           SKY/WX    TMP DP  RH WIND       PRES   REMARKS
ALGONA *       CLEAR     45  37  76 S9        29.66F
CLARION *      CLEAR     41  39  93 S13       29.67F
ESTHERVILLE    CLEAR     40  36  86 S10       29.62F WCI  33
FORT DODGE *   CLEAR     46  34  61 S13       29.68F
MASON CITY     PTCLDY    43  35  73 W8        29.70S
FOREST CITY *    N/A     41  37  87 SW3       29.68R
WEBSTER CITY * CLEAR     43  36  75 S9        29.67F
IOWA FALLS *     N/A     43  36  75 S13       29.71F
$$

IAZ007>011-017>019-026>030-037>042-050>054-066-221000-
   NORTHEAST IOWA

CITY           SKY/WX    TMP DP  RH WIND       PRES   REMARKS
CEDAR RAPIDS   CLEAR     46  41  82 S8        29.76F
CHARLES CITY * CLEAR     41  37  87 S13       29.69F
CLINTON *      LGT RAIN  48  47  96 S7        29.80F VSB 1/4
DECORAH *      CLEAR     48  36  61 S9G17     29.69F
DUBUQUE        CLEAR     44  43  96 S14       29.76F FOG
MONTICELLO *   FOG       43  43 100 S7        29.77F VSB 3/4
OELWEIN *      CLEAR     41  36  81 S14       29.73F
WATERLOO       CLEAR     44  33  65 S7        29.72F
$$

IAZ064-065-067-068-078-221000-
   EAST CENTRAL IOWA

CITY           SKY/WX    TMP DP  RH WIND       PRES   REMARKS
DAVENPORT      CLEAR     52  50  93 SW10      29.81F FOG
IOWA CITY      FOG       39  38  96 S3        29.80F VSB 1/4
MUSCATINE *    FOG       41  39  93 CALM      29.82S VSB<1/4
QUAD CITIES    CLEAR     54  51  90 SW8       29.80F
$$

IAZ062-063-075>077-085>089-095>099-221000-
   SOUTHEAST IOWA

CITY           SKY/WX    TMP DP  RH WIND       PRES   REMARKS
BURLINGTON     FOG       53  53 100 SW9       29.82S VSB 1/4
FAIRFIELD *    CLEAR     50  50 100 S7        29.79F FOG
KEOKUK *       FOG       52  52 100 SW7       29.82F VSB 1/4
OTTUMWA        PTCLDY    46  39  76 S12       29.77F
WASHINGTON *   FOG       48  48 100 S10       29.81S VSB 1/4
$$

ABBREVIATIONS USED IN REMARKS
   TC - TEMPERATURES IN CELSIUS
  WCI - WIND CHILL INDEX
   HX - HEAT INDEX
  VSB - VISIBILITY
$$




USA.gov is the U.S. government's official web portal to all federal, state and local government web resources and services.